THOR ABLESTAR DEB, 648

Orbit data source: Space-Track

THOR ABLESTAR DEB, 648 is space debris in LEO originally from a launch on Thu, 29 Jun 1961 UTC launched from the Air Force Eastern Test Range (AFETR). Debris objects in space refer to the collection of defunct objects orbiting the Earth. Examples of debris include non-operational satellites, rocket bodies, and fragments generated from explosions, collisions, or faulty payload assembly.

Loading next visibility...
THOR ABLESTAR DEB details
Identifier
648, 1961-015GZ
Orbit
LEO
Last TLE update6 hours ago
Origin
Flag of USUSAF SSD (US)
ManufacturerUnknown
MissionSpacecraft
Bus & MotorUnknown
MassUnknown
Launch date (UTC)
1961-06-29 (64 years ago)
Launch vehicleUnknown
Launch site
Air Force Eastern Test Range (AFETR)
Object type
Payload
Rocket body
Debris
Shape & HBRUnknown
Radar Cross SectionSmall (<0.1 m²)

Expand to show TLE details & history

TLE from 6 hours ago
0 THOR ABLESTAR DEB
1 00648U 61015GZ  25044.48940899  .00000451  00000-0  63876-3 0  9990
2 00648  65.8742 125.3326 0188994 102.5144 349.0240 13.58982509132558
Epoch: 2025-02-13T11:44Z
Definitive object data (Epoch: 2025-02-13T11:44:44.936Z)
Latitude65.96251°
Longitude-101.88717°
Altitude912.348 km
Speed7.471 km/s
True Right ascension14h 32m 15s
True Declination65° 50' 13"
Sunlit
Object was in daylight at TLE epoch
Visualization TLE readout
Latitude-37.66405°
Longitude144.62103°
Altitude1,165.492 km
Speed7.214 km/s
Apparent Right ascension07h 46m 26s
Apparent Declination-39° 17' 16"
Sunlit
Object is in daylight
Visualization observer readout
Local Sidereal Time20:45:24
Azimuth91.566° ESE
Elevation-78.636°
Doppler factor1
Orbital elements
Apogee altitude1,178.074 km
Perigee altitude897.756 km
Semi-major axis7,416.052 km
Eccentricity0.0188994
Inclination65.8742°
RAAN125.3326°
Arg. of periapsis102.5144°
True anomaly348.60188°
Mean anomaly349.024°
Eccentric anomaly348.81393°
Mean motion3.39847 °/min
BSTAR0.00063876
Orbital period105.93 mins
Loading maneuver chart data...

THOR ABLESTAR DEB Visibility forecast

Observer location: undefined°, undefined

Span
Click to sort rows by Start time (UTC) header in descending order
Start Az.
Max El. time (UTC)
Max El. Az.
Max El.
End time (UTC)
End Az.
11 mins2025-02-14 06:51:46.458Z204.053° SW2025-02-14 06:56:46.458Z152.487° SSE44.56°2025-02-14 07:02:46.458Z32.43° NE
7 mins2025-02-14 08:43:46.458Z283.567° WNW2025-02-14 08:46:46.458Z318.368° NNW18.917°2025-02-14 08:50:46.458Z1.944° NNE
7 mins2025-02-14 14:20:46.458Z9.526° NNE2025-02-14 14:23:46.458Z46.887° ENE19.04°2025-02-14 14:27:46.458Z89.093° E
10 mins2025-02-14 16:08:46.458Z325.18° NNW2025-02-14 16:12:46.458Z277.316° WNW43.878°2025-02-14 16:18:46.458Z157.869° S
|